カタログに戻る

STARLINK-33861

運用中通信VLEO
NORAD 63678·PAYLOAD·🇺🇸 United States

打ち上げ Apr 28, 2025 から Cape Canaveral Space Force Station

Loading…

次のパス (今後24時間)

TLE

最新Source: CelesTrak SupGP

元期: Sep 14, 2026, 22:50 UTC

1 63678C 25085Q   26257.95187500  .00029937  00000+0  10842-2 0  2570
2 63678  43.0009  42.2821 0001695 275.0187  48.1371 15.27566364    18

AllMySatでSTARLINK-33861をリアルタイム追跡

Download on the App Store